Location: Albuquerque Trailhead
(34.7934°N, 106.3736°W)
Time: 15:29:42
(UTC+00:00)

POLYITAN 1 - Pass Details

Date: 25 April 2024
Orbit: 551 x 569 km, 98.1° (Epoch: 25 May)

Event Time Altitude Azimuth Distance (km) Brightness Sun altitude
Rises 09:53:51 0° 21° (NNE) 2,787 ? -27.1°
Reaches altitude 10° 09:56:07 10° 29° (NNE) 1,884 ? -26.7°
Maximum altitude 09:59:58 40° 99° (E) 857 ? -26.2°
Enters shadow 10:00:14 39° 109° (ESE) 864 ? -26.1°
